sat.trackr.live / text

‹ back to catalog

STARLINK-5221

NORAD 54091 · 2022-136AS

PAYLOAD ACTIVE UNKNOWN

§ Identity

Operator
Country
US
Launch date
2022-10-20
Launch site
AFETR
Launch vehicle
Mass (kg)
RCS (m²)

Purposes: comms

External: N2YO · Heavens-Above · Gunter

§ Orbital elements

Epoch: 2026-09-20T22:00:03.000096Z

Period
95.09 min
Inclination
53.1608°
Eccentricity
0.0002405
Mean motion
15.14280116 rev/d
Perigee alt
521.5 km
Apogee alt
524.8 km
Semi-major
6,901.3 km
B*
3.3318e-4
RAAN
176.5322°
Arg perigee
63.0586°
Mean anomaly
313.5924°
Rev number
579

§ Raw data

STARLINK-52211 54091U 22136AS  26263.91670139  .00005869  00000+0  33318-3 0  99962 54091  53.1608 176.5322 0002405  63.0586 313.5924 15.14280116  5796

JSON: /api/v1/satellites/54091 · /tle

For live sub-satellite position, see the globe view (requires WebGL).

§ Visibility from observer

Set your observer location to see the next 7 days of passes ≥ 10°. The values pass through the URL so the page stays shareable.

No JS? Fill the form by hand. The geolocation button needs JavaScript.